OE9XVI-6 Weather Reports


Display with metric or nautical units.
time (UTC)temp
F
wind
direction
speed
MPH
gust
MPH
rain 1hr
in
rain 24hr
in
rain mn
in
humidity
%
barometer
mb
20260506205650 47 158 2.0 3.0 0.00 0.02 0.02 80 1011.3
20260506204650 46 293 0.0 0.0 0.00 0.02 0.02 82 1011.2
20260506203650 46 293 0.0 1.0 0.00 0.02 0.02 83 1011.2
20260506202650 48 319 0.0 0.0 0.00 0.02 0.02 78 1011.2
20260506201650 48 150 0.0 0.0 0.00 0.02 0.02 75 1011.1
20260506200650 49 165 0.0 0.0 0.00 0.02 0.02 74 1010.9
20260506195650 49 165 0.0 0.0 0.00 0.02 0.02 73 1010.9
20260506194650 50 165 0.0 2.0 0.00 0.02 0.02 72 1010.9
20260506193650 50 45 0.0 0.0 0.00 0.02 0.02 71 1010.7
20260506192650 50 45 0.0 1.0 0.00 0.02 0.02 69 1010.6
20260506191650 51 80 0.0 1.0 0.00 0.02 0.02 69 1010.5
20260506190650 52 146 0.0 0.0 0.00 0.02 0.02 69 1010.5
20260506185650 53 146 0.0 0.0 0.00 0.02 0.02 65 1010.1
20260506184650 55 160 0.0 3.0 0.00 0.02 0.02 62 1010.0
20260506183650 58 160 0.0 1.0 0.00 0.02 0.02 58 1009.9
20260506182650 63 147 0.0 1.0 0.00 0.02 0.02 51 1009.8
20260506181650 72 137 2.0 3.0 0.00 0.02 0.02 44 1009.7
20260506180650 75 151 0.0 0.0 0.00 0.02 0.02 44 1009.7
20260506175650 73 105 0.0 4.0 0.00 0.02 0.02 49 1009.5
20260506174650 66 306 0.0 2.0 0.00 0.02 0.02 59 1009.4
20260506173650 53 282 2.0 9.0 0.00 0.02 0.02 81 1009.4
20260506172650 48 267 0.0 4.0 0.00 0.02 0.02 86 1009.3
20260506171650 48 320 5.0 5.0 0.00 0.02 0.02 84 1009.3
20260506170650 50 336 3.0 6.0 0.00 0.02 0.02 77 1009.1
20260506165650 52 4 1.0 4.0 0.00 0.02 0.02 67 1009.1
20260506164650 53 286 0.0 6.0 0.00 0.02 0.02 71 1009.0
20260506163650 59 324 7.0 9.0 0.00 0.02 0.02 46 1008.7
20260506162650 70 167 0.0 3.0 0.00 0.02 0.02 44 1008.7
20260506161650 64 188 0.0 5.0 0.00 0.02 0.02 76 1008.7
20260506160650 50 133 3.0 7.0 0.01 0.02 0.02 81 1008.6
20260506155650 47 225 3.0 6.0 0.02 0.02 0.02 84 1008.6
20260506154650 46 261 0.0 6.0 0.02 0.02 0.02 83 1008.7
20260506153650 46 334 4.0 8.0 0.02 0.02 0.02 83 1008.7
20260506152650 46 136 5.0 13.0 0.02 0.02 0.02 85 1008.5
20260506151650 45 157 8.0 11.0 0.02 0.02 0.02 86 1008.3
20260506150650 46 164 11.0 14.0 0.01 0.01 0.01 84 1008.5
20260506145650 47 129 8.0 18.0 0.00 0.00 0.00 78 1007.8
20260506144650 50 143 8.0 17.0 0.00 0.00 0.00 71 1007.8
20260506143650 52 147 10.0 11.0 0.00 0.00 0.00 71 1007.6
20260506142650 52 140 9.0 10.0 0.00 0.00 0.00 70 1007.6
20260506141650 53 274 8.0 8.0 0.00 0.00 0.00 69 1007.6
20260506140650 52 265 4.0 9.0 0.00 0.00 0.00 79 1007.9
20260506135650 54 329 4.0 8.0 0.00 0.00 0.00 77 1007.6
20260506134650 58 317 8.0 9.0 0.00 0.00 0.00 64 1007.4
20260506133650 58 347 3.0 4.0 0.00 0.00 0.00 65 1007.4
20260506132650 61 327 3.0 5.0 0.00 0.00 0.00 62 1007.3
20260506131651 59 305 0.0 3.0 0.00 0.00 0.00 66 1007.3
20260506130651 59 133 0.0 3.0 0.00 0.00 0.00 67 1007.2
20260506125651 60 192 0.0 2.0 0.00 0.00 0.00 61 1007.2
20260506124651 60 104 0.0 7.0 0.00 0.00 0.00 71 1007.0
20260506123651 56 149 1.0 1.0 0.00 0.00 0.00 74 1007.0
20260506122651 57 317 1.0 4.0 0.00 0.00 0.00 70 1007.1
20260506121651 58 26 0.0 1.0 0.00 0.00 0.00 72 1007.0
20260506120651 56 331 1.0 4.0 0.00 0.00 0.00 76 1006.7
20260506115651 55 67 4.0 7.0 0.00 0.00 0.00 76 1007.0
20260506114651 52 286 1.0 6.0 0.00 0.00 0.00 79 1007.2
20260506113651 52 326 3.0 9.0 0.00 0.00 0.00 78 1007.2
20260506112651 53 322 1.0 4.0 0.00 0.00 0.00 78 1007.1
20260506111651 53 119 7.0 8.0 0.00 0.00 0.00 79 1006.7
20260506110651 53 286 0.0 6.0 0.00 0.00 0.00 81 1006.9
20260506105651 53 333 3.0 6.0 0.00 0.00 0.00 83 1006.7
20260506104651 53 336 4.0 7.0 0.00 0.00 0.00 84 1006.7
20260506103651 52 348 4.0 7.0 0.00 0.00 0.00 85 1006.9
20260506102651 53 0 1.0 3.0 0.00 0.00 0.00 74 1006.9
20260506101651 53 309 2.0 5.0 0.00 0.00 0.00 71 1007.1
20260506100651 54 300 0.0 1.0 0.00 0.00 0.00 74 1007.2
20260506095651 53 66 2.0 2.0 0.00 0.00 0.00 78 1007.1
20260506094651 52 327 3.0 6.0 0.00 0.00 0.00 77 1007.6
20260506093651 53 317 2.0 5.0 0.00 0.00 0.00 77 1007.2
20260506092651 52 326 7.0 7.0 0.00 0.00 0.00 74 1007.2
20260506091651 52 317 6.0 11.0 0.00 0.00 0.00 74 1007.0
20260506090651 53 307 6.0 8.0 0.00 0.00 0.00 75 1007.0
20260506085651 51 291 3.0 8.0 0.00 0.00 0.00 75 1007.0
20260506084651 51 330 3.0 8.0 0.00 0.00 0.00 76 1007.2
20260506083651 52 338 3.0 9.0 0.00 0.00 0.00 75 1007.1
20260506082651 52 330 1.0 2.0 0.00 0.00 0.00 77 1007.0
20260506081651 51 330 1.0 4.0 0.00 0.00 0.00 79 1007.3
20260506080651 50 33 0.0 5.0 0.00 0.00 0.00 79 1007.2
20260506072651 50 336 2.0 4.0 0.00 0.00 0.00 78 1007.1
20260506071651 50 345 0.0 4.0 0.00 0.00 0.00 76 1007.1
20260506070651 50 278 0.0 3.0 0.00 0.00 0.00 77 1007.1
20260506061651 50 136 2.0 3.0 0.00 0.00 0.00 76 1007.2
20260506060651 50 115 0.0 1.0 0.00 0.00 0.00 77 1007.3
20260506050652 47 149 3.0 3.0 0.00 0.00 0.00 79 1007.4
20260506044652 47 156 1.0 3.0 0.00 0.00 0.00 80 1007.7
20260506043652 47 157 3.0 4.0 0.00 0.00 0.00 80 1007.7
20260506042652 47 149 2.0 3.0 0.00 0.00 0.00 80 1007.8
20260506041652 47 158 2.0 4.0 0.00 0.00 0.00 80 1007.9
20260506040652 47 146 4.0 4.0 0.00 0.00 0.00 80 1008.0
20260506035652 47 324 0.0 0.0 0.00 0.00 0.00 81 1008.3
20260506034652 47 324 0.0 0.0 0.00 0.00 0.00 78 1008.4
20260506033652 47 324 0.0 0.0 0.00 0.00 0.00 79 1008.6
20260506032652 47 324 0.0 0.0 0.00 0.00 0.00 79 1008.6
20260506031652 47 324 0.0 1.0 0.00 0.00 0.00 78 1008.7
20260506030652 47 139 0.0 0.0 0.00 0.00 0.00 77 1008.7
20260506025652 47 139 0.0 0.0 0.00 0.00 0.00 77 1008.7
20260506024652 47 139 0.0 0.0 0.00 0.00 0.00 77 1009.1
20260506023652 47 139 0.0 0.0 0.00 0.00 0.00 78 1009.2
20260506022652 47 139 0.0 0.0 0.00 0.00 0.00 78 1009.4
20260506021652 47 139 0.0 0.0 0.00 0.00 0.00 79 1009.4
20260506020652 47 139 0.0 0.0 0.00 0.00 0.00 77 1009.4
20260506015652 47 139 0.0 2.0 0.00 0.00 0.00 77 1009.5
20260506014652 47 147 2.0 2.0 0.00 0.00 0.00 77 1009.5
20260506013652 47 81 0.0 0.0 0.00 0.00 0.00 77 1009.5
20260506012652 47 81 0.0 0.0 0.00 0.00 0.00 78 1009.9
20260506011652 48 81 0.0 0.0 0.00 0.00 0.00 78 1009.8
20260506010652 48 147 0.0 0.0 0.00 0.00 0.00 78 1009.9
20260506005652 47 147 0.0 0.0 0.00 0.00 0.00 78 1010.0
20260506004652 47 156 2.0 3.0 0.00 0.00 0.00 77 1009.9
20260506003652 48 172 0.0 0.0 0.00 0.00 0.00 77 1009.8
20260506002652 48 147 1.0 3.0 0.00 0.00 0.00 77 1010.2
20260506001652 47 133 0.0 0.0 0.00 0.00 0.00 78 1010.4
20260506000652 47 178 2.0 3.0 0.00 0.00 0.00 79 1010.5
20260505235652 47 147 0.0 0.0 0.00 0.00 0.00 80 1010.5
20260505234652 47 192 1.0 4.0 0.00 0.00 0.00 79 1010.5
20260505233652 47 151 3.0 5.0 0.00 0.00 0.00 79 1010.4
20260505232652 47 132 2.0 2.0 0.00 0.00 0.00 79 1010.5
20260505231652 47 153 4.0 4.0 0.00 0.00 0.00 79 1010.6
20260505230652 48 151 2.0 5.0 0.00 0.00 0.00 79 1010.6
20260505225652 48 146 4.0 6.0 0.00 0.00 0.00 79 1010.6
20260505224652 48 144 6.0 7.0 0.00 0.00 0.00 78 1010.7
20260505223652 48 130 2.0 3.0 0.00 0.00 0.00 77 1010.8
20260505222652 48 153 1.0 1.0 0.00 0.00 0.00 77 1010.7
20260505221652 48 151 2.0 2.0 0.00 0.00 0.00 76 1010.7
20260505220652 48 149 3.0 3.0 0.00 0.00 0.00 75 1010.8
20260505215652 48 104 0.0 0.0 0.00 0.00 0.00 75 1010.8
20260505214652 48 126 2.0 3.0 0.00 0.00 0.00 76 1010.9
20260505213652 48 170 0.0 3.0 0.00 0.00 0.00 76 1011.2
20260505212652 49 164 0.0 3.0 0.00 0.00 0.00 76 1011.2
20260505211652 49 163 2.0 3.0 0.00 0.00 0.00 77 1011.2
20260505210652 49 305 1.0 4.0 0.00 0.00 0.00 74 1011.2